When you browse on this site, cookies collect data to enhance your experience and personalize the content and advertising you see.
Visit our Privacy Policy to learn more. By continuing to use the site, you agree to this use of cookies and data.
  • en France
  • Liste des pays
  • À 7 jours
  • Température de l'eau
  • Carte satellitaire
  • Carte météo
  • Widgets météo
  • user-avatar
    Se connecter

    Météo par heure à Busan

    Ce jour, 25 Mai, Samedi

    Heure Température Précipitation Vent Pression Humidité
    00:00 +22°C° 0 mm 3 m/s 756 mmHg 64%
    01:00 +22°C° 0 mm 3 m/s 756 mmHg 65%
    02:00 +22°C° 0 mm 3 m/s 756 mmHg 66%
    03:00 +21°C° 0 mm 3 m/s 756 mmHg 67%
    04:00 +21°C° 0 mm 3 m/s 756 mmHg 66%
    05:00 +21°C° 0 mm 3 m/s 756 mmHg 66%
    06:00 +21°C° 0 mm 3 m/s 756 mmHg 66%
    07:00 +24°C° 0 mm 3 m/s 757 mmHg 58%
    08:00 +26°C° 0 mm 3 m/s 757 mmHg 50%
    09:00 +28°C° 0 mm 2 m/s 758 mmHg 40%
    10:00 +30°C° 0 mm 3 m/s 758 mmHg 34%
    11:00 +33°C° 0 mm 3 m/s 758 mmHg 27%
    12:00 +34°C° 0 mm 3 m/s 758 mmHg 21%
    13:00 +34°C° 0 mm 4 m/s 758 mmHg 22%
    14:00 +34°C° 0 mm 4 m/s 757 mmHg 23%
    15:00 +34°C° 0 mm 4 m/s 757 mmHg 23%
    16:00 +33°C° 0 mm 4 m/s 757 mmHg 27%
    17:00 +30°C° 0 mm 4 m/s 758 mmHg 32%
    18:00 +29°C° 0 mm 4 m/s 758 mmHg 36%
    19:00 +28°C° 0 mm 3 m/s 758 mmHg 38%
    20:00 +27°C° 0 mm 3 m/s 758 mmHg 41%
    21:00 +25°C° 0 mm 3 m/s 758 mmHg 43%
    22:00 +25°C° 0 mm 2 m/s 758 mmHg 44%
    23:00 +24°C° 0 mm 2 m/s 759 mmHg 45%

    Demain, 26 Mai, Dimanche

    Heure Température Précipitation Vent Pression Humidité
    00:00 +24°C° 0 mm 2 m/s 759 mmHg 46%
    01:00 +24°C° 0 mm 2 m/s 759 mmHg 47%
    02:00 +23°C° 0 mm 2 m/s 759 mmHg 48%
    03:00 +23°C° 0 mm 2 m/s 759 mmHg 48%
    04:00 +23°C° 0 mm 2 m/s 759 mmHg 49%
    05:00 +23°C° 0 mm 2 m/s 759 mmHg 50%
    06:00 +23°C° 0 mm 2 m/s 759 mmHg 50%
    07:00 +24°C° 0 mm 2 m/s 759 mmHg 45%
    08:00 +26°C° 0 mm 2 m/s 759 mmHg 39%
    09:00 +28°C° 0 mm 3 m/s 759 mmHg 34%
    10:00 +28°C° 0 mm 3 m/s 759 mmHg 32%
    11:00 +29°C° 0 mm 4 m/s 759 mmHg 31%
    12:00 +30°C° 0 mm 4 m/s 759 mmHg 29%
    13:00 +30°C° 0 mm 4 m/s 758 mmHg 31%
    14:00 +30°C° 0 mm 5 m/s 758 mmHg 33%
    15:00 +30°C° 0 mm 5 m/s 758 mmHg 35%
    16:00 +29°C° 0 mm 4 m/s 758 mmHg 40%
    17:00 +27°C° 0 mm 4 m/s 758 mmHg 46%
    18:00 +26°C° 0 mm 4 m/s 758 mmHg 51%
    19:00 +25°C° 0 mm 3 m/s 758 mmHg 57%
    20:00 +24°C° 0 mm 3 m/s 758 mmHg 63%
    21:00 +22°C° 0 mm 3 m/s 758 mmHg 68%
    22:00 +22°C° 0 mm 3 m/s 758 mmHg 70%
    23:00 +21°C° 0 mm 3 m/s 758 mmHg 72%

    Après-demain, 27 Mai, Lundi

    Heure Température Précipitation Vent Pression Humidité
    00:00 +21°C° 0 mm 3 m/s 758 mmHg 74%
    01:00 +21°C° 0 mm 3 m/s 757 mmHg 76%
    02:00 +21°C° 0 mm 3 m/s 757 mmHg 78%
    03:00 +21°C° 0 mm 3 m/s 756 mmHg 80%
    04:00 +21°C° 0 mm 4 m/s 756 mmHg 81%
    05:00 +21°C° 0 mm 4 m/s 756 mmHg 81%
    06:00 +21°C° 0 mm 4 m/s 755 mmHg 81%
    07:00 +21°C° 0 mm 5 m/s 755 mmHg 80%
    08:00 +22°C° 0 mm 6 m/s 755 mmHg 78%
    09:00 +22°C° 0 mm 7 m/s 755 mmHg 76%
    10:00 +22°C° 1.3 mm 7 m/s 754 mmHg 79%
    11:00 +21°C° 1.3 mm 8 m/s 754 mmHg 81%
    12:00 +21°C° 1.3 mm 9 m/s 753 mmHg 83%
    13:00 +19°C° 5.5 mm 9 m/s 753 mmHg 84%
    14:00 +19°C° 5.5 mm 9 m/s 752 mmHg 85%
    15:00 +18°C° 5.5 mm 9 m/s 751 mmHg 85%
    16:00 +18°C° 3.7 mm 9 m/s 750 mmHg 88%
    17:00 +19°C° 3.7 mm 10 m/s 750 mmHg 91%
    18:00 +19°C° 3.7 mm 10 m/s 749 mmHg 93%
    19:00 +19°C° 2.5 mm 10 m/s 749 mmHg 94%
    20:00 +21°C° 2.5 mm 10 m/s 749 mmHg 94%
    21:00 +21°C° 2.5 mm 10 m/s 749 mmHg 95%
    22:00 +21°C° 0.1 mm 9 m/s 749 mmHg 91%
    23:00 +19°C° 0.1 mm 9 m/s 749 mmHg 88%

    28 Mai, Mardi

    Heure Température Précipitation Vent Pression Humidité
    00:00 +20°C° 0.1 mm 8 m/s 750 mmHg 84%
    01:00 +18°C° 0 mm 8 m/s 750 mmHg 78%
    02:00 +16°C° 0 mm 8 m/s 751 mmHg 72%
    03:00 +15°C° 0 mm 8 m/s 751 mmHg 66%
    04:00 +13°C° 0 mm 8 m/s 751 mmHg 62%
    05:00 +14°C° 0 mm 7 m/s 752 mmHg 58%
    06:00 +14°C° 0 mm 7 m/s 752 mmHg 54%
    07:00 +16°C° 0 mm 6 m/s 753 mmHg 48%
    08:00 +17°C° 0 mm 6 m/s 754 mmHg 42%
    09:00 +20°C° 0 mm 6 m/s 754 mmHg 36%
    10:00 +22°C° 0 mm 5 m/s 754 mmHg 32%
    11:00 +23°C° 0 mm 4 m/s 755 mmHg 29%
    12:00 +26°C° 0 mm 4 m/s 755 mmHg 25%
    13:00 +27°C° 0 mm 3 m/s 754 mmHg 25%
    14:00 +27°C° 0 mm 3 m/s 754 mmHg 24%
    15:00 +28°C° 0 mm 2 m/s 754 mmHg 23%
    16:00 +27°C° 0 mm 2 m/s 754 mmHg 26%
    17:00 +26°C° 0 mm 2 m/s 754 mmHg 30%
    18:00 +26°C° 0 mm 2 m/s 754 mmHg 33%
    19:00 +24°C° 0 mm 2 m/s 755 mmHg 36%
    20:00 +21°C° 0 mm 2 m/s 755 mmHg 39%
    21:00 +20°C° 0 mm 2 m/s 756 mmHg 42%
    22:00 +19°C° 0 mm 2 m/s 756 mmHg 42%
    23:00 +18°C° 0 mm 2 m/s 756 mmHg 43%

    29 Mai, Mercredi

    Heure Température Précipitation Vent Pression Humidité
    00:00 +19°C° 0 mm 1 m/s 756 mmHg 43%
    01:00 +17°C° 0 mm 2 m/s 756 mmHg 44%
    02:00 +17°C° 0 mm 2 m/s 755 mmHg 44%
    03:00 +16°C° 0 mm 2 m/s 755 mmHg 45%
    04:00 +16°C° 0 mm 2 m/s 755 mmHg 46%
    05:00 +16°C° 0 mm 2 m/s 755 mmHg 48%
    06:00 +15°C° 0 mm 2 m/s 755 mmHg 50%
    07:00 +18°C° 0 mm 2 m/s 755 mmHg 44%
    08:00 +20°C° 0 mm 2 m/s 755 mmHg 38%
    09:00 +24°C° 0 mm 1 m/s 755 mmHg 31%
    10:00 +26°C° 0 mm 2 m/s 755 mmHg 29%
    11:00 +27°C° 0 mm 3 m/s 755 mmHg 27%
    12:00 +29°C° 0 mm 4 m/s 755 mmHg 25%
    13:00 +29°C° 0 mm 4 m/s 754 mmHg 25%
    14:00 +29°C° 0 mm 5 m/s 754 mmHg 26%
    15:00 +30°C° 0 mm 5 m/s 754 mmHg 27%
    16:00 +29°C° 0 mm 5 m/s 754 mmHg 32%
    17:00 +28°C° 0 mm 5 m/s 753 mmHg 37%
    18:00 +27°C° 0 mm 5 m/s 753 mmHg 42%
    19:00 +25°C° 0 mm 4 m/s 754 mmHg 46%
    20:00 +23°C° 0 mm 4 m/s 754 mmHg 49%
    21:00 +22°C° 0 mm 3 m/s 754 mmHg 52%
    22:00 +21°C° 0 mm 3 m/s 754 mmHg 52%
    23:00 +21°C° 0 mm 3 m/s 754 mmHg 52%

    30 Mai, Jeudi

    Heure Température Précipitation Vent Pression Humidité
    00:00 +20°C° 0 mm 3 m/s 754 mmHg 52%
    01:00 +20°C° 0 mm 2 m/s 754 mmHg 53%
    02:00 +19°C° 0 mm 2 m/s 754 mmHg 53%
    03:00 +19°C° 0 mm 2 m/s 753 mmHg 53%
    04:00 +19°C° 0 mm 2 m/s 753 mmHg 53%
    05:00 +19°C° 0 mm 2 m/s 753 mmHg 52%
    06:00 +19°C° 0 mm 2 m/s 754 mmHg 52%
    07:00 +22°C° 0 mm 1 m/s 754 mmHg 45%
    08:00 +25°C° 0 mm 1 m/s 754 mmHg 39%
    09:00 +27°C° 0 mm 1 m/s 754 mmHg 33%
    10:00 +28°C° 0 mm 2 m/s 754 mmHg 29%
    11:00 +29°C° 0 mm 3 m/s 753 mmHg 26%
    12:00 +32°C° 0 mm 4 m/s 753 mmHg 22%
    13:00 +30°C° 0 mm 4 m/s 753 mmHg 23%
    14:00 +30°C° 0 mm 5 m/s 752 mmHg 24%
    15:00 +30°C° 0 mm 5 m/s 752 mmHg 24%
    16:00 +29°C° 0 mm 5 m/s 752 mmHg 28%
    17:00 +27°C° 0 mm 5 m/s 752 mmHg 32%
    18:00 +26°C° 0 mm 5 m/s 752 mmHg 36%
    19:00 +25°C° 0 mm 5 m/s 752 mmHg 38%
    20:00 +23°C° 0 mm 4 m/s 752 mmHg 40%
    21:00 +22°C° 0 mm 4 m/s 752 mmHg 42%
    22:00 +21°C° 0 mm 4 m/s 752 mmHg 44%
    23:00 +21°C° 0 mm 4 m/s 752 mmHg 46%
    Voir plus